EW5835 Weather Reports


time (UTC)temp
F
wind
direction
speed
knots
gust
knots
rain 1hr
in
rain 24hr
in
rain mn
in
humidity
%
barometer
mb
20260504185819 70 262 0.9 8.7 0.00 0.00 0.00 35 1008.7
20260504185324 71 227 0.9 6.1 0.00 0.00 0.00 37 1008.8
20260504185319 70 248 0.9 7.8 0.00 0.00 0.00 33 1008.9
20260504184318 71 275 0.0 1.7 0.00 0.00 0.00 36 1008.8
20260504183819 70 24 0.0 2.6 0.00 0.00 0.00 39 1008.8
20260504183318 70 230 0.0 15.6 0.00 0.00 0.00 37 1008.9
20260504182818 69 305 3.5 15.6 0.00 0.00 0.00 35 1008.9
20260504182318 69 351 1.7 11.3 0.00 0.00 0.00 35 1008.9
20260504181819 69 279 0.0 6.1 0.00 0.00 0.00 36 1009.1
20260504181319 69 310 0.0 7.8 0.00 0.00 0.00 38 1009.1
20260504180818 69 283 0.9 7.8 0.00 0.00 0.00 37 1009.2
20260504180317 69 289 0.0 3.5 0.00 0.00 0.00 38 1009.2
20260504175818 68 292 0.0 7.8 0.00 0.00 0.00 38 1009.2
20260504175318 67 344 1.7 7.8 0.00 0.00 0.00 38 1009.3
20260504174817 67 272 0.0 8.7 0.00 0.00 0.00 39 1009.4
20260504174317 67 288 2.6 8.7 0.00 0.00 0.00 38 1009.5
20260504173816 67 265 0.9 7.8 0.00 0.00 0.00 39 1009.4
20260504173316 67 274 0.9 7.8 0.00 0.00 0.00 38 1009.5
20260504172817 67 269 0.0 7.8 0.00 0.00 0.00 40 1009.6
20260504172315 67 279 0.0 10.4 0.00 0.00 0.00 41 1009.5
20260504171816 67 331 1.7 12.2 0.00 0.00 0.00 38 1009.5
20260504171317 66 278 0.9 19.1 0.00 0.00 0.00 40 1009.6
20260504170815 66 271 3.5 19.1 0.00 0.00 0.00 41 1009.8
20260504170320 66 314 0.0 1.7 0.00 0.00 0.00 42 1009.8
20260504170315 66 313 0.9 8.7 0.00 0.00 0.00 40 1009.9
20260504160314 62 314 0.0 3.5 0.00 0.00 0.00 40 1010.5
20260504150812 62 271 0.0 9.6 0.00 0.00 0.00 42 1011.0
20260504150318 61 341 0.0 6.1 0.00 0.00 0.00 45 1011.0
20260504150313 62 272 0.0 3.5 0.00 0.00 0.00 43 1011.0
20260504141309 59 245 0.0 2.6 0.00 0.00 0.00 45 1011.3
20260504140810 59 243 0.0 2.6 0.00 0.00 0.00 45 1011.3
20260504140309 59 238 0.0 2.6 0.00 0.00 0.00 47 1011.5
20260504130807 55 299 0.0 7.8 0.00 0.00 0.00 49 1012.1
20260504130308 55 230 0.9 7.8 0.00 0.00 0.00 50 1012.2
20260504120305 46 243 0.0 0.0 0.00 0.00 0.00 76 1012.5
20260504110303 35 268 0.0 0.0 0.00 0.00 0.00 94 1012.6
20260504100302 31 271 0.0 0.0 0.00 0.00 0.00 94 1012.9
20260504081258 32 279 0.0 0.0 0.00 0.00 0.00 92 1012.5
20260504080804 32 279 0.0 0.0 0.00 0.00 0.00 92 1012.5
20260504080800 32 279 0.0 0.0 0.00 0.00 0.00 92 1012.4
20260504080414 32 279 0.0 0.0 0.00 0.00 0.00 92 1012.5
20260504070255 33 266 0.0 0.0 0.00 0.00 0.00 91 1012.4
20260504050752 35 251 0.0 0.0 0.00 0.00 0.00 88 1012.1
20260504045751 35 238 0.0 0.0 0.00 0.00 0.00 88 1012.2
20260504045251 35 238 0.0 0.0 0.00 0.00 0.00 87 1012.2
20260504044758 36 271 0.0 0.0 0.00 0.00 0.00 87 1012.1
20260504044752 35 238 0.0 0.0 0.00 0.00 0.00 87 1012.1
20260504044251 36 238 0.0 0.0 0.00 0.00 0.00 87 1012.2
20260504043251 36 271 0.0 0.0 0.00 0.00 0.00 86 1012.1
20260504042752 36 271 0.0 0.0 0.00 0.00 0.00 86 1012.1
20260504042255 36 271 0.0 0.0 0.00 0.00 0.00 85 1012.1
20260504042249 36 271 0.0 0.0 0.00 0.00 0.00 86 1012.1
20260504041249 36 271 0.0 0.0 0.00 0.00 0.00 86 1012.1
20260504040748 36 271 0.0 0.0 0.00 0.00 0.00 85 1012.0
20260504040253 37 271 0.0 0.0 0.00 0.00 0.00 85 1012.0
20260504040248 37 271 0.0 0.0 0.00 0.00 0.00 85 1012.0
20260504035250 37 266 0.0 0.0 0.00 0.00 0.00 84 1012.0
20260504034753 37 264 0.0 0.0 0.00 0.00 0.00 83 1012.0
20260504034748 37 264 0.0 0.0 0.00 0.00 0.00 84 1012.1
20260504034403 37 264 0.0 0.0 0.00 0.00 0.00 83 1011.9
20260504033248 38 264 0.0 0.0 0.00 0.00 0.00 83 1012.0
20260504032748 38 262 0.0 0.0 0.00 0.00 0.00 83 1012.0
20260504032253 38 262 0.0 0.0 0.00 0.00 0.00 81 1012.1
20260504032248 38 262 0.0 0.0 0.00 0.00 0.00 82 1012.1
20260504031748 38 262 0.0 0.0 0.00 0.00 0.00 82 1012.0
20260504030746 38 262 0.0 0.0 0.00 0.00 0.00 81 1012.1
20260504030247 38 262 0.0 0.0 0.00 0.00 0.00 81 1012.0
20260504025747 38 266 0.0 0.0 0.00 0.00 0.00 81 1011.9
20260504025248 38 266 0.0 0.0 0.00 0.00 0.00 81 1011.9
20260504024747 38 266 0.0 0.0 0.00 0.00 0.00 79 1011.8
20260504024252 39 266 0.0 0.0 0.00 0.00 0.00 79 1011.8
20260504024247 39 266 0.0 0.0 0.00 0.00 0.00 79 1011.8
20260504023247 39 266 0.0 0.0 0.00 0.00 0.00 79 1011.9
20260504022746 40 266 0.0 0.0 0.00 0.00 0.00 78 1011.9
20260504022245 40 266 0.0 0.0 0.00 0.00 0.00 76 1011.8
20260504021746 40 266 0.0 0.0 0.00 0.00 0.00 76 1011.7
20260504021251 41 268 0.0 0.0 0.00 0.00 0.00 76 1011.6
20260504021245 40 266 0.0 0.0 0.00 0.00 0.00 76 1011.7
20260504020745 41 266 0.0 0.0 0.00 0.00 0.00 76 1011.6
20260504015745 41 258 0.0 0.0 0.00 0.00 0.00 75 1011.7
20260504015245 41 268 0.0 0.0 0.00 0.00 0.00 73 1011.6
20260504014750 42 268 0.0 0.0 0.00 0.00 0.00 71 1011.5
20260504014744 41 268 0.0 0.0 0.00 0.00 0.00 73 1011.6
20260504014245 42 268 0.0 0.0 0.00 0.00 0.00 72 1011.6
20260504013244 42 268 0.0 0.0 0.00 0.00 0.00 71 1011.6
20260504012745 43 268 0.0 0.0 0.00 0.00 0.00 71 1011.5
20260504012245 43 266 0.0 0.0 0.00 0.00 0.00 70 1011.5
20260504011744 43 274 0.0 0.0 0.00 0.00 0.00 69 1011.5
20260504011245 44 316 0.0 0.0 0.00 0.00 0.00 66 1011.3
20260504010744 44 316 0.0 0.0 0.00 0.00 0.00 66 1011.2
20260504010245 45 316 0.0 0.0 0.00 0.00 0.00 64 1011.2
20260504005744 46 316 0.0 0.0 0.00 0.00 0.00 62 1011.3
20260504005243 46 316 0.0 0.0 0.00 0.00 0.00 61 1011.2
20260504004743 47 316 0.0 0.0 0.00 0.00 0.00 59 1011.1
20260504004243 47 316 0.0 0.0 0.00 0.00 0.00 58 1011.1
20260504003743 47 316 0.0 0.0 0.00 0.00 0.00 56 1011.0
20260504003242 47 316 0.0 0.0 0.00 0.00 0.00 55 1011.0
20260504002741 48 316 0.0 0.0 0.00 0.00 0.00 54 1010.9
20260504002242 48 316 0.0 0.0 0.00 0.00 0.00 53 1010.9
20260504001741 49 316 0.0 0.0 0.00 0.00 0.00 53 1010.8
20260504001242 49 220 0.0 0.0 0.00 0.00 0.00 51 1010.6
20260504000743 49 220 0.0 0.0 0.00 0.00 0.00 50 1010.6
20260504000241 50 220 0.0 0.0 0.00 0.00 0.00 49 1010.6
20260503235743 50 220 0.0 0.0 0.00 0.00 0.00 48 1010.6
20260503235242 51 220 0.0 0.0 0.00 0.00 0.00 48 1010.5
20260503234742 51 220 0.0 0.0 0.00 0.00 0.00 47 1010.5
20260503234241 52 219 0.0 0.0 0.00 0.00 0.00 45 1010.5
20260503233745 53 266 0.0 0.0 0.00 0.00 0.00 44 1010.4
20260503233741 52 231 0.0 0.0 0.00 0.00 0.00 44 1010.4
20260503232740 53 266 0.0 0.0 0.00 0.00 0.00 43 1010.4
20260503232243 54 313 0.0 2.6 0.00 0.00 0.00 42 1010.3
20260503232239 53 348 0.0 2.6 0.00 0.00 0.00 42 1010.3
20260503231239 54 166 0.0 0.0 0.00 0.00 0.00 42 1010.2
20260503230743 54 324 0.0 0.0 0.00 0.00 0.00 41 1010.2
20260503230738 54 250 0.0 0.0 0.00 0.00 0.00 41 1010.3
20260503225740 54 180 0.0 0.9 0.00 0.00 0.00 40 1010.1
20260503225239 54 220 0.0 5.2 0.00 0.00 0.00 40 1010.1
20260503224738 54 243 0.9 5.2 0.00 0.00 0.00 40 1010.1
20260503224239 54 265 0.0 0.9 0.00 0.00 0.00 40 1010.1
20260503223745 54 244 0.0 4.3 0.00 0.00 0.00 39 1010.0
20260503223739 54 266 0.0 4.3 0.00 0.00 0.00 40 1010.0
20260503222737 55 168 0.0 0.9 0.00 0.00 0.00 38 1010.0
20260503222239 55 320 0.0 7.8 0.00 0.00 0.00 37 1009.8
20260503221739 55 329 0.9 7.8 0.00 0.00 0.00 38 1010.0
20260503221237 55 314 0.9 3.5 0.00 0.00 0.00 39 1009.9
20260503220737 55 116 0.0 0.0 0.00 0.00 0.00 37 1009.8
20260503220239 55 310 0.0 3.5 0.00 0.00 0.00 37 1009.9
20260503215737 55 13 0.0 11.3 0.00 0.00 0.00 38 1009.9
20260503215237 55 125 1.7 11.3 0.00 0.00 0.00 38 1009.8
20260503214737 55 106 0.0 0.0 0.00 0.00 0.00 36 1009.8
20260503214237 55 282 0.0 0.9 0.00 0.00 0.00 37 1009.7
20260503213736 55 138 0.0 2.6 0.00 0.00 0.00 36 1009.7
20260503213240 55 148 0.0 0.9 0.00 0.00 0.00 36 1009.7
20260503213236 55 331 0.0 2.6 0.00 0.00 0.00 36 1009.7
20260503212235 55 288 0.0 10.4 0.00 0.00 0.00 36 1009.6
20260503211736 55 333 0.0 10.4 0.00 0.00 0.00 34 1009.6
20260503211236 55 37 0.0 4.3 0.00 0.00 0.00 34 1009.6
20260503210735 55 255 0.0 8.7 0.00 0.00 0.00 34 1009.6
20260503210241 55 148 0.0 9.6 0.00 0.00 0.00 32 1009.5
20260503210235 55 20 0.9 11.3 0.00 0.00 0.00 32 1009.5
20260503205734 55 149 0.0 11.3 0.00 0.00 0.00 32 1009.6
20260503204734 55 347 1.7 6.1 0.00 0.00 0.00 33 1009.3
20260503204233 55 213 0.0 1.7 0.00 0.00 0.00 31 1009.4
20260503203736 56 343 0.0 5.2 0.00 0.00 0.00 31 1009.5
20260503203235 56 235 0.0 5.2 0.00 0.00 0.00 31 1009.5
20260503202734 56 219 0.0 7.8 0.00 0.00 0.00 31 1009.5
20260503202232 55 23 0.9 7.8 0.00 0.00 0.00 31 1009.4
20260503201733 56 138 0.9 7.8 0.00 0.00 0.00 31 1009.5
20260503201233 55 86 0.0 7.8 0.00 0.00 0.00 30 1009.5
20260503200734 55 68 0.0 5.2 0.00 0.00 0.00 31 1009.6
20260503200235 55 262 0.9 12.2 0.00 0.00 0.00 32 1009.7
20260503195733 55 264 0.9 12.2 0.00 0.00 0.00 32 1009.8
20260503195237 55 252 0.0 10.4 0.00 0.00 0.00 32 1009.8
20260503195233 55 254 0.9 9.6 0.00 0.00 0.00 33 1009.7
20260503194233 55 1 1.7 10.4 0.00 0.00 0.00 31 1009.9
20260503193733 54 285 0.0 8.7 0.00 0.00 0.00 33 1010.3
20260503193232 54 331 0.9 8.7 0.00 0.00 0.00 33 1010.0
20260503192732 54 11 0.0 2.6 0.00 0.00 0.00 35 1010.1
20260503192233 54 212 0.0 2.6 0.00 0.00 0.00 38 1010.3
20260503191730 53 141 0.0 10.4 0.00 0.00 0.00 36 1010.2
20260503191232 54 321 2.6 10.4 0.00 0.00 0.00 33 1010.4
20260503190732 54 180 0.9 8.7 0.00 0.00 0.00 33 1010.3
20260503190230 55 276 2.6 7.8 0.00 0.00 0.00 33 1010.4